Home > Weather > Goslar > Past weeks

Flag for Germany Past Weather in Goslar, Lower Saxony, Germany — Yesterday and Last 2 Weeks

Now
72 °F

Sunny.


Feels Like: 75 °F
Forecast: 58 / 71 °F
Wind: 3 mph from North

Location: Braunschweig Wolfsburg

Current Time: Jul 29, 2016 at 9:42:40 PM

Latest Report: Jul 29, 2016 at 8:50 PM


Visibility: 10 mi

Pressure: 29.83 "Hg

Humidity: 65%

Dew Point: 59 °F

Location of GoslarLocation

Past Weather in Goslar — Graph

°F

Goslar Temperature Yesterday

Maximum temperature yesterday: 75 °F (at 4:20 PM)
Minimum temperature yesterday: 64 °F (at 6:50 AM)
Average temperature yesterday: 70 °F

High & Low Weather Summary for the Past Weeks

 TemperatureHumidityPressure
High90 °F (Jul 20, 6:20 PM)100% (Jul 26, 6:50 AM)30.24 "Hg (Jul 26, 6:50 AM)
Low55 °F (Jul 14, 8:50 PM)31% (Jul 20, 3:50 PM)29.83 "Hg (Jul 29, 7:50 PM)
Average73 °F63%30.05 "Hg
* Reported Jul 14 7:20 PM — Jul 29 7:50 PM, Goslar, Weather by CustomWeather, © 2016

Note: Actual official high and low records may vary slightly from our data, if they occured in-between our weather recording intervals... More about our weather records

Advertising

Goslar Weather History for the Previous 24 Hours

Scroll right to see more
 ConditionsComfort  
Time TempWeatherWind HumidityBarometerVisibility
7:50 PM
Fri, Jul 29
73 °FSunny.6 mph61%29.83 "Hg10 mi
7:20 PM73 °FSunny.9 mph61%29.86 "Hg10 mi
6:50 PM75 °FScattered clouds.9 mph57%29.86 "HgN/A
6:20 PM72 °FScattered clouds.7 mph61%29.86 "HgN/A
5:50 PM73 °FPassing clouds.8 mph57%29.86 "HgN/A
5:20 PM73 °FPassing clouds.12 mph61%29.86 "HgN/A
4:50 PM72 °FBroken clouds.12 mph69%29.86 "HgN/A
4:20 PM75 °FBroken clouds.12 mph50%29.86 "HgN/A
3:50 PM73 °FPartly sunny.8 mph57%29.86 "HgN/A
3:20 PM72 °FPartly sunny.8 mph57%29.86 "HgN/A
2:50 PM73 °FBroken clouds.8 mph57%29.89 "HgN/A
2:20 PM75 °FPartly sunny.10 mph57%29.89 "HgN/A
1:50 PM72 °FBroken clouds.8 mph61%29.89 "HgN/A
1:20 PM70 °FBroken clouds.9 mph64%29.89 "HgN/A
12:50 PM70 °FScattered clouds.10 mph69%29.89 "HgN/A
12:20 PM68 °FPartly sunny.9 mph73%29.89 "HgN/A
11:50 AM68 °FPartly sunny.13 mph69%29.89 "HgN/A
10:50 AM68 °FBroken clouds.12 mph69%29.92 "HgN/A
10:20 AM68 °FBroken clouds.10 mph69%29.92 "HgN/A
9:50 AM70 °FScattered clouds.10 mph73%29.92 "HgN/A
9:20 AM68 °FScattered clouds.9 mph78%29.92 "HgN/A
8:50 AM66 °FScattered clouds.8 mph88%29.92 "HgN/A
8:20 AM64 °FScattered clouds.7 mph88%29.92 "HgN/A
7:50 AM64 °FSunny.7 mph88%29.92 "Hg10 mi
7:20 AM63 °FSunny.8 mph94%29.89 "Hg10 mi
6:50 AM63 °FSunny.7 mph94%29.89 "Hg10 mi
9:50 PM
Thu, Jul 28
66 °FMore clouds than sun.No wind94%29.92 "HgN/A
9:20 PM68 °FMostly cloudy.3 mph88%29.92 "HgN/A
Weather by CustomWeather, © 2016

See weather overviewHow to use our weather pages